TimeCST,TemperatureF,Dew PointF,Humidity,Sea Level PressureIn,VisibilityMPH,Wind Direction,Wind SpeedMPH,Gust SpeedMPH,PrecipitationIn,Events,Conditions,WindDirDegrees,DateUTC
12:15 AM,32.0,31.8,99,29.85,3.0,SE,15.0,20.7,N/A,Snow,Light Snow,140,2013-01-11 06:15:00
12:35 AM,32.0,31.8,99,29.84,5.0,SE,12.7,-,N/A,,Overcast,140,2013-01-11 06:35:00
12:55 AM,32.0,32.0,100,29.82,5.0,SE,15.0,18.4,N/A,Rain,Light Rain,140,2013-01-11 06:55:00
1:15 AM,32.0,32.0,100,29.80,10.0,SE,12.7,16.1,N/A,,Overcast,140,2013-01-11 07:15:00
1:35 AM,32.0,32.0,100,29.78,10.0,SE,15.0,-,N/A,,Overcast,130,2013-01-11 07:35:00
1:55 AM,32.0,32.0,100,29.78,7.0,SE,15.0,20.7,N/A,,Overcast,140,2013-01-11 07:55:00
2:15 AM,32.0,32.0,100,29.77,5.0,SE,12.7,-,N/A,,Overcast,140,2013-01-11 08:15:00
2:35 AM,32.2,32.0,99,29.77,3.0,SE,11.5,-,N/A,,Overcast,140,2013-01-11 08:35:00
2:55 AM,32.2,32.0,99,29.75,2.0,SE,12.7,-,N/A,,Overcast,140,2013-01-11 08:55:00
3:15 AM,32.0,32.0,100,29.74,2.0,SE,15.0,-,N/A,,Overcast,140,2013-01-11 09:15:00
3:35 AM,32.2,32.0,99,29.71,2.0,SSE,13.8,-,N/A,,Overcast,150,2013-01-11 09:35:00
3:55 AM,32.2,32.0,99,29.71,3.0,SSE,6.9,-,N/A,,Overcast,160,2013-01-11 09:55:00
4:15 AM,32.2,32.0,99,29.70,2.5,SSE,6.9,-,N/A,,Overcast,150,2013-01-11 10:15:00
4:35 AM,32.2,32.2,100,29.68,2.5,SSE,5.8,-,N/A,,Overcast,150,2013-01-11 10:35:00
4:55 AM,32.2,32.2,100,29.68,2.5,SE,4.6,-,N/A,,Overcast,140,2013-01-11 10:55:00
5:15 AM,32.2,32.2,100,29.66,2.5,SE,3.5,-,N/A,,Overcast,130,2013-01-11 11:15:00
5:35 AM,32.2,32.2,100,29.66,1.5,SE,4.6,-,N/A,,Overcast,130,2013-01-11 11:35:00
5:55 AM,32.2,32.2,100,29.66,1.2,SSE,4.6,-,N/A,,Overcast,150,2013-01-11 11:55:00
6:15 AM,32.2,32.2,100,29.65,0.8,SE,4.6,-,N/A,,Overcast,130,2013-01-11 12:15:00
6:35 AM,32.2,32.2,100,29.64,1.2,SE,6.9,-,N/A,,Overcast,130,2013-01-11 12:35:00
6:55 AM,32.2,32.2,100,29.64,1.5,SE,9.2,-,N/A,,Overcast,130,2013-01-11 12:55:00
7:15 AM,32.0,32.0,100,29.64,1.2,SE,8.1,-,N/A,,Overcast,130,2013-01-11 13:15:00
7:35 AM,32.0,32.0,100,29.64,0.5,SE,6.9,-,N/A,Fog,Fog,140,2013-01-11 13:35:00
7:55 AM,32.0,32.0,100,29.63,0.5,SE,6.9,-,N/A,Fog,Fog,140,2013-01-11 13:55:00
8:15 AM,32.0,32.0,100,29.63,0.2,SE,6.9,-,N/A,Fog,Fog,130,2013-01-11 14:15:00
8:35 AM,32.0,32.0,100,29.62,0.2,SE,6.9,-,N/A,Fog,Fog,140,2013-01-11 14:35:00
8:55 AM,32.2,32.2,100,29.62,0.2,SE,6.9,-,N/A,Fog,Fog,140,2013-01-11 14:55:00
9:15 AM,32.4,32.4,100,29.62,0.2,SSE,4.6,-,N/A,Fog,Fog,160,2013-01-11 15:15:00
9:35 AM,32.5,32.5,100,29.62,0.2,South,4.6,-,N/A,Fog,Fog,180,2013-01-11 15:35:00
9:55 AM,32.9,32.9,100,29.63,0.2,SSW,3.5,-,N/A,Fog,Fog,200,2013-01-11 15:55:00
10:15 AM,32.9,32.9,100,29.62,0.2,South,4.6,-,N/A,Fog,Fog,170,2013-01-11 16:15:00
10:35 AM,33.1,33.1,100,29.62,0.2,SSW,4.6,-,N/A,Fog,Fog,210,2013-01-11 16:35:00
10:55 AM,33.8,33.8,100,29.62,0.2,SSW,3.5,-,N/A,Fog,Fog,210,2013-01-11 16:55:00
11:15 AM,34.0,34.0,100,29.61,0.2,SW,3.5,-,N/A,Fog,Fog,230,2013-01-11 17:15:00
11:35 AM,34.7,34.7,100,29.60,0.2,SW,3.5,-,N/A,Fog,Fog,220,2013-01-11 17:35:00
11:55 AM,34.9,34.9,100,29.58,0.2,South,3.5,-,N/A,Fog,Fog,180,2013-01-11 17:55:00
12:15 PM,34.7,34.7,100,29.60,0.2,SW,4.6,-,N/A,Fog,Fog,230,2013-01-11 18:15:00
12:35 PM,35.6,35.6,100,29.59,0.8,SSW,3.5,-,N/A,,Overcast,200,2013-01-11 18:35:00
12:55 PM,35.2,35.2,100,29.58,0.5,Calm,Calm,-,N/A,Fog,Fog,0,2013-01-11 18:55:00
1:15 PM,35.6,35.6,100,29.59,0.2,SSW,3.5,-,N/A,Fog,Fog,210,2013-01-11 19:15:00
1:35 PM,35.8,35.8,100,29.59,0.8,Calm,Calm,-,N/A,,Overcast,0,2013-01-11 19:35:00
2:15 PM,35.8,35.8,100,29.58,0.8,SSE,3.5,-,N/A,,Overcast,160,2013-01-11 20:15:00
2:35 PM,35.6,35.6,100,29.59,0.8,South,4.6,-,N/A,,Overcast,170,2013-01-11 20:35:00
2:55 PM,35.6,35.6,100,29.59,0.2,South,6.9,-,N/A,Fog,Fog,170,2013-01-11 20:55:00
3:15 PM,35.6,35.6,100,29.59,0.2,South,5.8,-,N/A,Fog,Fog,170,2013-01-11 21:15:00
3:35 PM,35.8,35.8,100,29.58,0.2,South,6.9,-,N/A,Fog,Fog,180,2013-01-11 21:35:00
3:55 PM,35.8,35.8,100,29.59,0.2,South,8.1,-,N/A,Fog,Fog,180,2013-01-11 21:55:00
4:15 PM,35.2,35.2,100,29.58,0.2,SSE,8.1,-,N/A,Fog,Fog,160,2013-01-11 22:15:00
4:35 PM,35.2,35.2,100,29.59,0.2,South,6.9,-,N/A,Fog,Fog,180,2013-01-11 22:35:00
4:55 PM,35.1,35.1,100,29.58,0.2,South,5.8,-,N/A,Fog,Fog,170,2013-01-11 22:55:00
5:15 PM,35.1,35.1,100,29.58,0.2,SSE,6.9,-,N/A,Fog,Fog,160,2013-01-11 23:15:00
5:35 PM,35.1,35.1,100,29.59,0.2,SSE,9.2,-,N/A,Fog,Fog,160,2013-01-11 23:35:00
5:55 PM,34.7,34.7,100,29.58,0.5,SSE,11.5,-,N/A,Fog,Fog,160,2013-01-11 23:55:00
6:15 PM,35.1,35.1,100,29.59,0.5,South,12.7,-,N/A,Fog,Fog,170,2013-01-12 00:15:00
6:35 PM,34.9,34.9,100,29.57,0.5,SSE,11.5,-,N/A,Fog,Fog,160,2013-01-12 00:35:00
6:55 PM,34.7,34.7,100,29.57,0.2,SSE,10.4,-,N/A,Fog,Fog,160,2013-01-12 00:55:00
7:15 PM,34.7,34.7,100,29.58,0.2,South,8.1,-,N/A,Fog,Fog,170,2013-01-12 01:15:00
7:35 PM,35.1,35.1,100,29.58,0.5,South,8.1,-,N/A,Fog,Fog,170,2013-01-12 01:35:00
7:55 PM,35.1,35.1,100,29.58,0.5,South,11.5,-,N/A,Fog,Fog,170,2013-01-12 01:55:00
8:15 PM,35.1,35.1,100,29.56,0.5,SSE,11.5,-,N/A,Fog,Fog,160,2013-01-12 02:15:00
8:35 PM,35.1,35.1,100,29.55,0.2,SSE,10.4,-,N/A,Fog,Fog,160,2013-01-12 02:35:00
8:55 PM,35.8,35.8,100,29.56,0.2,South,11.5,-,N/A,Fog,Fog,180,2013-01-12 02:55:00
9:15 PM,36.0,36.0,100,29.54,0.2,South,11.5,-,N/A,Fog,Fog,170,2013-01-12 03:15:00
9:35 PM,36.0,36.0,100,29.54,0.2,South,12.7,-,N/A,Fog,Fog,170,2013-01-12 03:35:00
9:55 PM,36.3,36.3,100,29.53,0.2,South,11.5,-,N/A,Fog,Fog,170,2013-01-12 03:55:00
10:15 PM,36.1,36.1,100,29.52,0.2,South,11.5,-,N/A,Fog,Fog,170,2013-01-12 04:15:00
10:35 PM,36.5,36.5,100,29.50,0.2,South,10.4,-,N/A,Fog,Fog,170,2013-01-12 04:35:00
10:55 PM,37.8,37.8,100,29.50,0.2,South,12.7,-,N/A,Fog,Fog,180,2013-01-12 04:55:00
11:15 PM,38.5,38.5,100,29.49,0.5,South,11.5,-,N/A,Fog,Fog,190,2013-01-12 05:15:00
11:35 PM,38.3,38.3,100,29.49,0.2,South,10.4,-,N/A,Fog,Fog,190,2013-01-12 05:35:00
11:55 PM,38.5,38.5,100,29.49,0.2,South,9.2,-,N/A,Fog,Fog,190,2013-01-12 05:55:00